Wind_Speed
42 42 42 41 40 39 39 37 36 36 35 36 36 33 30 29 31 32 33 34 36 39 42 44 46 50 53 54 51 49 50 51 51 50 48 48 49 49 48 46 45 45 44 43 41 40 38 37 35 34 32 30 29 27 25 24 22 21 19 17 16 15 14 15 14 10 8 7 7 8 8 9 9 9 9 9 8 8 8 8 8 7 8 7 8 9 9 11
42 42 41 40 40 39 38 37 36 36 36 36 36 33 31 31 34 35 35 36 39 42 45 46 47 49 51 50 49 48 50 51 51 50 49 48 48 47 47 46 45 45 44 43 41 40 38 37 36 34 32 31 29 28 26 24 22 20 19 17 16 16 14 14 13 11 9 8 7 7 7 8 9 8 8 8 8 8 7 7 7 7 7 7 7 8 8 9
43 41 41 40 40 39 38 37 36 36 36 37 37 34 32 33 37 38 37 38 41 44 46 46 46 47 47 46 47 48 50 51 50 50 49 48 47 46 45 45 45 45 44 42 41 40 38 37 36 35 33 31 30 28 26 23 21 20 18 17 17 16 15 14 13 12 11 9 8 7 7 7 8 8 7 7 7 7 7 7 7 7 7 6 7 7 7 7
43 41 41 40 39 39 38 37 36 36 37 38 37 35 33 36 40 40 38 39 42 45 46 46 44 44 43 44 46 49 50 50 50 50 49 48 47 46 45 45 45 45 44 42 41 40 38 37 36 35 33 32 30 28 26 23 21 20 18 17 16 16 16 15 14 13 12 10 9 8 8 7 7 7 7 7 7 7 7 7 6 6 6 6 6 6 6 6
43 42 41 40 39 39 38 37 37 37 38 39 38 36 35 38 42 41 39 39 42 46 47 46 44 42 42 43 46 49 50 50 50 50 49 48 46 46 45 45 45 45 44 42 41 40 38 37 36 35 33 32 30 28 26 24 22 20 18 17 16 15 16 16 15 14 13 12 11 10 9 8 7 7 7 7 7 7 7 7 7 7 7 6 6 6 6 5
44 43 41 40 39 39 38 37 37 37 39 40 40 39 37 41 45 42 40 40 42 45 47 46 44 43 42 43 46 49 49 49 50 49 48 47 46 46 45 45 45 44 43 41 40 40 38 37 35 34 33 31 30 28 26 24 22 21 19 17 16 15 15 16 15 15 14 13 12 12 10 9 9 8 7 8 8 8 7 7 7 7 7 7 6 6 6 6
45 43 42 41 40 39 39 37 37 38 41 42 41 41 39 44 47 43 41 39 41 44 45 45 43 43 43 44 46 47 47 47 49 49 47 47 47 46 46 45 45 44 42 41 40 39 38 36 35 34 33 31 30 28 26 24 23 21 20 19 18 17 16 16 15 14 14 14 13 13 11 10 10 9 8 7 8 8 8 8 7 7 7 7 7 7 7 7
45 44 42 41 40 40 39 38 38 39 43 44 44 43 41 47 49 44 42 40 40 43 43 44 42 42 43 43 45 46 46 46 48 49 47 47 47 47 46 46 45 44 43 41 40 39 38 37 35 34 33 32 30 28 27 25 24 23 22 20 19 18 17 16 15 14 14 13 14 13 12 12 11 10 8 8 8 9 9 9 8 8 8 7 7 7 7 7
46 44 43 41 40 40 38 37 38 41 45 45 46 45 44 50 52 45 43 41 40 42 43 44 42 42 42 41 42 44 46 47 48 49 48 48 48 48 47 46 45 44 42 41 41 40 39 37 36 35 34 32 31 29 28 26 25 24 23 21 20 19 17 16 15 14 14 14 14 14 14 13 13 11 10 9 10 10 10 10 10 10 9 9 8 8 8 7
46 45 43 41 41 40 38 37 38 41 46 47 48 47 46 52 53 47 44 42 41 41 43 44 43 43 43 42 41 42 45 47 48 49 49 49 49 48 48 47 46 45 43 42 41 41 39 38 37 36 35 33 32 30 29 28 26 25 23 22 21 19 18 16 15 15 15 15 15 15 16 15 14 13 11 11 11 11 11 11 12 12 11 11 10 9 9 9
47 46 44 42 41 41 39 38 39 42 47 49 51 49 48 54 54 49 46 44 43 43 44 46 45 44 43 43 42 41 43 45 46 48 49 49 49 48 48 48 47 46 45 43 43 42 41 40 39 37 35 34 32 30 29 28 27 26 24 23 21 20 19 17 17 17 16 16 16 16 17 16 16 14 13 14 13 12 12 12 12 13 13 12 12 11 10 10
49 47 45 43 42 42 41 39 40 43 48 51 53 51 51 56 55 50 48 47 46 45 46 47 47 45 44 43 43 42 43 45 45 46 48 49 49 49 49 49 48 47 46 45 44 43 42 40 39 37 36 34 32 31 30 29 27 26 24 23 22 20 19 19 18 18 17 17 17 17 18 18 18 16 14 15 15 14 13 13 13 13 13 13 13 13 12 12
50 49 47 44 42 42 42 40 40 44 48 52 54 52 52 57 56 52 50 48 48 48 48 49 48 47 45 43 43 43 43 44 44 45 47 49 50 50 50 49 48 47 47 46 45 44 42 41 39 38 36 35 34 33 31 30 28 26 25 24 22 21 20 19 19 18 18 18 18 18 18 19 19 17 15 16 17 16 15 14 13 13 14 14 14 14 13 13
51 50 48 45 43 43 42 41 41 44 49 53 54 54 54 58 57 53 51 49 49 49 49 50 49 48 46 44 44 44 43 43 44 43 45 47 48 49 49 49 48 48 47 46 46 44 43 41 40 38 37 36 35 34 32 31 30 28 27 25 24 22 20 21 21 20 19 19 20 20 19 20 21 18 17 18 18 17 16 15 13 13 14 15 15 15 14 14
53 51 49 46 44 44 43 42 41 43 49 52 54 55 56 58 57 54 52 50 50 50 49 49 49 48 47 45 45 46 44 43 43 42 43 44 46 47 47 48 48 48 47 47 46 45 44 42 41 39 38 37 36 35 34 32 31 29 28 26 24 23 22 22 23 22 21 21 22 22 20 21 22 20 20 20 19 19 17 15 14 14 14 15 15 15 15 15
54 52 50 47 45 45 43 43 42 43 46 49 52 56 57 58 57 54 53 53 52 51 49 49 49 49 47 46 47 46 44 43 43 42 42 43 44 45 46 47 48 48 48 47 47 46 45 43 42 40 39 38 36 35 34 33 32 30 28 26 25 24 24 24 24 23 23 23 23 23 22 22 23 22 22 21 20 20 18 16 15 14 15 15 15 16 16 16
55 54 52 49 47 46 44 43 43 43 44 45 49 55 58 58 57 55 55 55 53 51 49 48 49 49 47 47 47 46 45 44 43 43 42 42 43 44 45 46 46 47 47 47 47 46 45 44 42 41 39 38 37 36 35 33 31 28 27 27 26 26 26 26 26 25 25 24 24 24 23 23 24 24 24 23 22 21 19 17 16 15 15 15 15 16 17 18
56 55 54 51 49 48 45 44 43 43 44 44 45 52 58 59 56 56 56 57 54 51 49 49 49 49 48 48 46 46 46 44 43 43 42 41 42 43 44 45 45 46 46 47 47 47 46 44 43 42 41 40 38 36 34 31 29 29 29 29 29 29 28 28 28 27 26 25 25 25 24 24 26 26 25 25 23 22 20 19 18 17 17 17 17 18 19 19
55 57 55 53 51 49 47 45 44 44 44 44 44 48 56 60 58 57 58 58 55 52 51 50 50 50 48 47 46 45 45 45 44 43 43 42 42 42 43 44 44 45 46 46 46 47 46 45 44 43 41 39 37 34 33 31 32 33 33 32 32 32 30 30 30 28 28 27 27 26 25 26 27 26 26 26 24 23 22 21 20 19 19 19 19 19 20 19
54 57 57 54 52 51 49 47 45 44 45 44 44 46 52 59 61 59 59 60 57 54 51 50 49 50 48 46 45 44 45 44 43 43 43 42 42 42 43 44 45 45 45 45 45 46 45 45 44 42 39 37 36 35 36 36 36 36 35 35 34 33 32 32 31 30 29 28 28 28 27 27 27 26 27 27 25 24 23 22 21 21 20 20 19 20 20 20
53 56 59 56 54 53 51 49 46 45 45 45 44 45 48 54 58 58 59 61 60 57 53 50 49 50 49 46 44 43 43 43 42 42 42 42 42 43 43 44 45 45 45 45 45 45 46 45 43 40 39 39 39 40 40 39 38 37 37 36 35 34 33 32 31 30 30 29 29 29 28 27 27 28 28 28 26 25 24 23 22 21 21 20 20 21 21 22
52 55 59 58 55 55 53 50 48 46 46 46 45 45 46 49 54 56 57 59 59 58 55 52 51 51 49 47 45 43 42 42 41 41 41 42 42 43 43 44 44 44 44 44 45 45 46 45 42 41 42 43 43 43 41 40 39 38 38 36 35 34 33 33 32 31 31 31 30 30 29 27 28 29 28 28 27 25 25 24 23 22 22 21 21 22 23 23
51 52 58 60 57 56 56 52 50 48 46 46 45 46 47 48 51 54 56 57 58 58 56 55 54 52 50 48 47 46 43 42 41 40 40 41 42 42 42 43 43 43 43 43 44 45 45 43 42 43 43 44 43 43 42 41 39 38 37 37 36 35 34 34 34 33 32 32 32 31 30 28 29 30 29 29 27 25 26 25 24 24 24 24 23 23 23 24
52 51 56 61 59 57 58 54 51 50 48 47 46 46 48 49 51 53 54 56 59 60 57 57 57 54 51 49 48 48 46 44 42 41 40 40 41 41 41 42 42 42 42 42 43 43 43 41 42 44 44 44 43 42 41 40 39 38 37 36 36 36 36 35 34 34 34 33 33 32 31 29 29 30 30 29 28 26 26 26 25 26 26 26 24 23 24 26
52 51 53 60 62 59 59 57 54 51 50 49 48 47 48 51 53 52 52 54 59 62 61 60 60 57 54 51 49 48 48 46 44 43 42 41 41 41 41 41 42 43 43 43 43 44 44 43 44 45 45 44 43 42 41 40 39 38 37 37 37 36 36 36 35 35 35 35 34 33 33 31 29 30 30 29 29 27 27 27 27 28 28 27 25 25 26 27
53 51 50 57 63 62 60 59 56 53 52 50 49 48 48 50 53 54 54 55 57 61 64 64 62 60 57 54 50 49 49 48 46 45 44 43 42 41 41 42 42 42 43 44 45 45 45 45 46 46 45 44 43 42 41 40 39 38 38 37 37 37 37 37 36 36 36 36 35 34 35 33 30 30 30 29 29 28 27 27 28 29 28 27 27 28 28 29
53 52 49 52 60 64 62 60 58 56 53 52 50 49 48 49 52 54 55 58 59 59 64 67 64 62 60 56 53 51 50 50 48 46 45 44 44 43 42 42 42 42 43 45 46 46 45 45 46 46 45 44 43 42 41 40 39 38 38 38 38 38 38 38 38 38 38 37 36 36 36 35 31 29 29 29 29 29 28 29 29 29 29 29 29 30 30 30
53 53 51 49 54 62 63 61 60 57 53 53 52 50 50 51 52 53 56 60 60 56 61 68 66 63 61 57 54 53 51 49 48 48 46 45 44 44 43 42 42 42 43 44 44 43 43 43 44 44 43 43 42 41 41 41 40 40 39 39 39 39 39 39 39 39 39 38 38 36 36 37 33 28 28 29 29 30 30 30 29 29 30 30 30 30 31 32
54 55 53 49 49 56 63 63 61 59 55 53 53 51 51 52 53 54 56 60 60 56 57 65 68 65 62 59 56 54 52 50 49 48 46 45 45 44 43 42 42 43 43 43 43 43 43 43 43 43 43 43 42 42 42 42 42 41 41 40 40 40 40 40 40 39 40 39 38 37 36 37 34 28 27 29 29 30 30 31 30 30 30 31 31 31 32 32
56 56 55 52 47 49 57 63 63 61 58 54 53 52 53 55 55 56 58 60 59 56 55 60 67 67 64 61 59 56 55 53 51 49 48 47 46 44 44 44 43 43 43 44 44 44 44 44 44 44 44 44 44 44 44 43 43 42 42 41 40 40 40 40 40 39 40 40 38 38 36 37 35 30 28 29 30 30 30 31 31 31 31 31 31 32 32 33
57 57 55 52 48 46 51 60 64 62 60 56 54 54 55 56 57 58 60 58 57 57 55 57 64 68 65 63 61 58 57 55 53 52 51 49 48 47 46 46 45 44 44 44 45 45 45 45 46 45 45 45 45 44 44 44 44 43 42 41 40 40 40 40 40 40 41 40 39 38 37 37 37 32 28 29 30 30 30 30 31 31 31 31 32 32 34 35
57 57 55 51 49 46 48 56 62 62 61 57 54 56 57 58 60 61 58 56 57 58 55 54 59 66 67 64 62 60 58 57 55 54 52 50 49 48 47 46 45 45 44 44 44 45 45 45 45 45 45 45 45 45 44 44 43 43 42 41 40 40 40 40 40 40 41 40 39 38 37 37 37 33 30 31 30 30 30 30 30 31 31 32 33 33 34 35
57 57 55 52 50 48 48 54 59 61 60 57 55 57 57 60 63 60 57 57 58 56 54 53 54 61 67 66 64 63 60 57 56 54 53 51 50 48 48 47 45 44 43 42 42 43 43 44 44 45 44 44 44 44 44 43 42 41 40 39 38 38 39 40 40 40 40 39 39 39 38 38 36 33 33 32 30 29 30 30 30 31 32 32 33 34 34 35
58 57 55 52 51 50 49 53 58 60 60 57 56 57 59 62 62 59 58 59 58 55 55 55 53 57 66 68 65 63 62 59 57 56 54 53 52 51 49 48 46 45 43 42 43 42 42 43 43 43 43 43 43 43 43 42 41 40 39 39 38 38 39 39 40 40 40 40 40 40 39 38 35 33 34 33 30 29 30 31 31 32 32 33 33 34 35 35
59 58 55 53 52 52 51 52 56 59 59 57 56 58 61 63 61 60 61 59 57 56 55 55 55 56 62 68 67 64 62 61 59 57 56 55 54 52 49 48 47 46 45 44 44 43 42 42 41 41 42 42 42 42 42 42 42 42 41 40 39 38 39 39 39 40 40 40 41 40 39 37 35 34 34 34 31 29 30 32 33 33 34 34 34 34 35 35
60 59 56 55 54 53 52 53 55 57 57 56 57 60 61 62 61 61 61 59 57 58 57 57 59 58 60 66 69 67 64 62 60 59 58 56 55 53 51 48 47 46 45 44 43 43 42 41 41 41 41 41 42 41 41 41 41 41 41 40 38 38 38 39 39 40 40 41 41 40 38 36 34 34 34 34 33 31 32 33 34 35 36 36 36 35 35 36
60 58 56 56 55 53 53 53 54 56 56 57 59 60 60 60 62 62 61 60 59 60 60 60 60 60 59 62 67 69 67 64 63 62 60 58 57 56 53 51 49 47 45 44 44 43 42 42 41 41 42 42 42 41 42 41 41 40 40 39 38 39 39 39 40 41 40 41 40 38 36 34 34 34 34 35 35 34 33 33 35 36 37 37 37 38 38 37
59 58 57 57 56 55 54 54 55 56 56 58 60 60 59 60 62 62 61 62 61 61 62 61 60 60 60 60 62 66 68 67 66 64 63 62 61 58 56 54 51 49 47 46 46 45 44 44 44 43 44 43 43 43 44 43 42 42 42 41 41 42 42 40 41 41 40 40 39 37 36 35 34 34 34 35 36 36 35 34 34 35 36 37 38 39 39 40
57 58 59 59 58 57 57 57 57 57 58 60 60 60 60 60 61 61 61 63 63 62 62 61 61 60 60 60 59 61 65 68 68 66 65 64 63 61 58 56 54 52 50 49 48 48 47 47 47 47 46 46 46 46 45 44 43 43 43 43 43 43 42 40 40 40 39 39 39 38 37 36 35 35 35 35 36 37 36 36 35 35 35 36 37 38 39 40
53 55 58 59 59 59 59 59 59 60 60 57 58 60 61 60 60 61 62 63 63 63 62 61 61 61 61 61 60 60 61 63 66 68 67 65 64 62 59 57 57 55 54 53 52 50 49 49 49 49 49 49 48 47 45 44 44 44 44 44 42 42 41 40 40 39 39 39 39 40 40 38 37 36 36 36 36 36 37 38 37 37 37 37 38 39 40 41
51 53 55 56 57 59 61 63 62 60 58 55 57 61 61 60 60 61 61 63 63 63 62 61 61 61 61 61 61 61 60 60 62 66 68 67 64 63 61 58 58 57 57 58 56 54 53 52 52 52 52 51 49 48 47 47 46 46 45 45 43 43 42 42 43 42 41 42 42 43 43 41 39 39 38 38 37 37 38 39 40 40 40 40 41 42 42 43
49 51 53 54 55 57 61 63 61 58 57 56 57 59 60 60 60 60 60 61 63 63 63 62 61 61 61 61 61 61 60 60 59 61 66 67 64 62 61 60 59 59 59 59 58 57 57 56 55 55 54 52 51 51 50 49 48 48 48 47 46 46 45 45 46 44 44 45 45 46 46 44 41 41 40 40 39 40 41 42 43 43 44 45 46 45 45 45
49 49 50 52 54 55 60 61 59 56 55 54 54 56 57 59 59 59 59 59 61 63 63 63 62 62 62 61 61 61 60 60 60 59 61 64 64 63 63 63 61 61 61 61 61 60 59 59 59 59 58 57 56 55 53 53 52 51 51 49 48 49 48 48 48 48 48 48 47 48 48 45 42 42 42 42 43 44 46 46 46 47 47 48 49 49 49 49
52 51 49 51 52 55 60 60 56 54 53 53 54 54 54 56 57 59 58 58 58 60 62 63 62 62 62 61 61 61 61 61 61 60 59 61 63 63 64 64 63 63 63 62 62 62 62 62 63 63 63 62 62 61 59 58 56 55 53 52 52 52 51 52 51 51 52 50 48 50 49 44 44 45 45 46 48 49 50 49 49 49 50 51 51 51 52 51
56 54 53 53 52 53 57 57 54 54 53 52 54 54 53 54 56 57 58 57 57 58 59 61 61 61 61 61 61 60 61 61 61 61 60 60 61 62 63 64 64 64 64 63 63 63 63 64 64 64 65 65 65 64 61 59 57 57 56 55 55 55 55 55 54 55 54 51 51 53 49 46 46 48 49 51 53 53 52 51 51 51 52 53 54 54 54 54
60 59 57 57 56 54 55 54 53 54 53 52 54 55 55 54 54 55 57 57 57 56 57 58 59 60 60 60 61 61 60 60 61 61 61 60 61 61 61 62 63 63 63 63 63 64 65 66 65 65 65 65 63 62 60 58 57 57 55 55 55 55 55 55 57 58 55 53 55 54 50 49 49 50 52 54 54 55 54 53 54 55 56 56 56 56 56 56
63 63 60 59 59 58 56 55 54 53 51 52 54 55 55 55 55 55 56 56 56 56 56 56 56 58 58 58 59 60 60 60 60 61 60 60 61 61 60 61 61 62 62 62 63 63 65 66 66 66 65 63 62 62 62 61 60 58 57 56 56 55 55 56 58 57 54 56 59 55 52 53 52 53 55 55 55 57 57 57 58 58 58 58 58 59 59 60
66 66 64 62 61 61 58 56 55 54 52 53 54 54 55 56 56 55 54 55 55 55 55 55 55 56 56 56 56 57 58 59 60 60 60 60 60 61 61 61 61 62 61 61 62 64 65 65 65 65 65 63 63 64 63 62 62 61 61 61 60 60 60 61 61 59 58 62 62 57 56 57 55 56 56 56 58 60 60 61 61 61 61 61 61 61 62 62
69 70 68 65 63 62 59 57 55 55 55 55 56 55 56 56 55 55 55 55 56 56 55 55 54 54 55 56 56 56 56 58 58 59 59 60 60 61 61 61 62 62 62 61 61 62 64 64 64 65 65 65 65 65 65 64 64 64 64 63 63 63 64 63 63 61 61 64 62 59 61 60 57 57 57 57 59 61 61 62 63 63 64 63 63 63 63 64
69 72 72 70 67 63 61 58 56 56 56 57 58 57 56 56 55 56 56 56 56 56 56 55 54 54 55 55 56 56 56 57 58 58 59 59 59 60 60 61 61 61 61 61 60 60 61 62 62 63 64 65 66 66 66 66 66 66 66 65 64 64 64 64 64 63 64 66 63 62 65 62 57 58 59 58 60 61 62 63 63 64 65 65 65 66 66 66
66 69 72 73 71 68 65 63 60 58 58 59 60 60 58 57 56 56 57 58 58 58 57 56 56 57 57 57 56 56 56 57 58 59 59 59 60 60 59 60 60 59 59 59 59 60 60 60 61 61 63 64 65 64 65 66 66 68 67 66 65 65 65 65 65 64 66 67 65 66 67 63 59 60 61 60 60 61 61 62 63 65 66 67 68 69 70 70
63 65 68 71 72 71 70 69 66 64 62 62 62 63 63 62 61 60 60 60 59 59 58 58 58 59 60 59 58 58 59 60 60 60 61 61 61 61 61 61 61 60 60 59 59 59 59 60 61 61 62 64 64 63 63 63 66 69 69 67 66 66 67 67 68 67 67 67 67 68 67 63 62 63 63 62 61 61 61 62 63 66 67 69 70 71 72 72
Wind_Direction
211 212 213 215 215 216 216 215 215 215 215 216 216 214 210 209 211 208 204 200 199 194 186 183 181 179 178 178 178 180 182 183 184 184 187 188 189 188 186 185 185 184 183 181 179 177 174 173 171 170 169 167 165 166 166 167 167 165 163 162 165 166 162 154 153 165 176 176 170 164 163 161 156 146 132 122 122 125 126 126 126 127 129 131 128 124 120 117
211 212 214 215 214 215 215 214 214 215 214 215 214 211 207 208 207 202 197 193 192 188 182 179 178 177 176 176 179 181 183 183 184 185 187 190 191 190 187 186 185 185 184 182 180 178 175 174 173 171 170 168 167 168 168 169 168 165 162 163 166 167 165 160 159 166 176 181 178 173 173 172 165 155 141 129 126 128 131 133 133 136 137 138 136 131 128 125
210 212 214 214 214 214 214 214 214 214 213 212 212 207 206 206 203 197 191 189 188 184 180 178 178 177 176 177 180 182 183 183 184 185 187 190 192 191 189 187 187 186 185 183 181 179 177 176 174 172 171 170 169 170 169 170 169 166 164 166 169 168 166 165 167 171 175 183 185 183 185 185 175 165 154 140 133 132 135 139 138 140 144 147 146 140 138 135
209 211 213 213 213 213 214 214 213 212 210 210 209 205 206 205 199 193 188 186 186 183 180 179 179 178 177 179 182 184 184 184 185 186 187 190 192 192 191 189 188 187 186 184 183 181 179 178 176 174 173 172 171 171 170 170 170 169 168 171 173 171 168 169 174 176 177 185 189 191 194 196 188 179 170 159 151 144 143 146 146 146 148 153 155 150 148 145
207 209 212 212 212 213 213 214 212 211 208 207 206 204 206 203 195 189 186 185 185 182 181 180 181 180 179 181 183 184 185 185 187 187 188 190 192 193 192 192 190 189 187 185 184 183 181 179 177 176 175 175 173 172 170 170 171 172 173 176 180 177 171 173 180 181 183 187 192 195 198 200 199 195 187 180 175 165 155 153 155 155 154 157 161 160 157 155
206 208 210 211 211 212 213 213 212 209 205 204 204 204 206 200 192 187 184 185 185 183 181 182 182 182 182 183 183 184 185 186 188 188 189 190 192 194 193 193 193 191 188 186 185 184 183 181 180 179 178 177 176 174 172 173 174 175 177 180 186 185 177 179 186 187 189 190 195 200 199 203 207 204 201 196 192 187 176 166 164 163 161 161 163 166 164 161
205 207 209 210 210 211 212 212 211 207 203 202 203 204 205 198 190 186 184 185 185 183 182 183 184 184 184 185 185 185 186 188 188 188 190 191 193 195 194 194 194 192 190 188 187 187 185 183 182 181 181 180 179 177 176 176 178 180 181 184 190 191 185 186 192 195 196 195 200 206 202 205 212 209 208 210 208 205 198 188 181 177 172 168 168 172 173 171
204 206 208 208 209 210 211 212 209 205 201 200 202 205 204 195 189 186 184 185 186 185 184 185 186 187 187 187 187 187 189 190 190 190 191 192 195 196 196 195 195 194 192 190 189 189 187 186 185 185 185 183 182 181 179 180 184 186 186 188 193 195 192 192 196 200 202 202 204 210 208 209 216 214 209 216 220 218 214 209 202 196 191 185 182 183 187 190
204 205 207 207 208 209 211 212 209 203 199 199 201 205 203 194 189 187 186 186 187 187 187 186 188 190 189 189 190 190 192 193 192 192 192 193 196 197 197 197 197 196 195 193 191 191 190 188 188 189 188 187 186 185 184 185 189 193 192 192 196 200 200 198 200 205 207 208 209 212 214 214 219 219 213 216 224 223 222 221 216 213 209 205 202 202 207 210
203 205 207 206 206 207 208 210 208 203 199 198 201 205 202 193 189 188 188 189 189 189 189 188 189 191 191 191 191 192 194 195 195 195 194 194 196 198 198 198 198 197 196 195 193 193 192 192 191 192 192 191 190 189 188 190 193 198 198 196 199 203 206 206 206 210 213 213 214 215 217 218 221 223 219 218 223 225 225 226 225 222 219 217 215 216 221 224
203 205 206 205 205 206 207 208 207 203 199 199 202 205 201 193 191 190 190 191 191 191 191 190 190 191 191 191 191 193 195 196 197 197 196 195 197 199 200 200 200 198 197 196 196 196 195 195 194 194 195 194 194 194 194 195 197 201 203 202 203 205 210 213 214 216 218 219 219 220 221 221 223 224 225 224 224 226 228 229 230 228 225 224 223 223 227 232
203 204 206 206 205 206 206 206 206 203 200 201 204 206 201 193 192 193 192 193 193 193 193 192 191 191 191 191 192 194 194 196 197 198 199 199 200 201 202 202 201 200 199 198 198 199 199 198 197 197 197 197 197 199 200 201 203 206 208 208 209 210 213 219 222 222 224 225 225 225 224 224 225 223 227 232 229 227 230 232 233 235 233 231 230 230 230 235
204 205 206 206 205 206 206 205 205 203 201 203 207 207 201 194 193 195 195 195 194 194 194 193 193 193 192 192 194 194 194 196 197 198 200 200 201 202 203 203 203 202 201 200 200 201 202 201 201 201 200 200 201 203 204 206 208 210 213 215 216 216 219 224 229 229 229 231 231 230 226 226 228 223 223 233 234 229 231 233 234 236 237 236 235 235 235 238
205 205 206 206 205 206 206 205 204 203 202 205 208 207 201 195 194 196 197 197 197 196 196 195 195 195 194 194 195 195 195 197 197 199 200 201 202 202 203 204 204 203 202 202 202 203 204 204 204 204 203 204 205 206 207 209 210 213 216 219 221 221 223 228 232 232 233 234 235 235 230 228 230 225 222 230 236 235 233 234 236 237 238 239 238 238 239 242
206 205 207 207 205 206 206 206 205 205 204 206 208 205 201 197 195 197 198 199 199 197 197 197 196 196 195 196 197 196 196 197 198 200 201 202 203 203 204 205 205 205 204 204 204 205 206 207 208 208 207 208 209 209 211 213 214 216 219 222 224 226 227 230 233 233 234 234 236 237 233 231 232 228 225 229 236 239 237 236 239 241 242 242 242 241 241 241
207 206 207 207 206 206 207 206 206 206 206 207 208 204 201 199 196 197 199 199 199 198 199 199 198 197 197 198 198 197 197 198 199 200 201 203 204 204 205 205 206 206 206 206 207 207 208 209 210 211 211 212 213 214 216 218 218 220 224 227 229 231 232 234 236 236 236 236 236 237 234 232 234 231 229 230 233 238 239 238 239 244 246 245 245 246 245 240
208 207 207 208 207 207 208 207 207 208 208 210 210 204 200 200 199 198 200 200 199 200 200 199 197 197 197 199 198 198 198 199 200 200 201 203 205 206 207 207 207 208 208 209 209 210 210 211 212 213 214 215 216 217 219 221 224 227 231 234 235 237 237 238 239 238 239 238 237 238 235 232 233 232 232 231 233 237 239 239 239 241 245 244 242 244 244 240
210 209 207 208 208 207 208 208 208 209 210 211 212 207 201 200 201 201 201 201 200 201 202 199 197 196 197 198 198 198 199 200 201 201 202 203 205 207 208 209 209 209 210 211 211 212 213 213 214 215 216 217 218 221 224 227 230 234 236 237 238 238 239 240 241 240 241 241 239 239 235 233 233 233 233 233 233 235 237 238 237 238 240 240 238 238 240 240
213 211 209 208 208 208 208 208 208 209 211 212 212 211 204 200 201 202 201 201 202 202 202 199 197 196 196 197 197 198 199 200 201 202 203 204 206 208 210 211 211 211 212 213 214 215 215 216 217 218 219 221 223 225 229 230 232 234 235 236 237 238 238 239 240 240 240 241 240 239 236 234 235 234 233 234 234 235 236 235 235 236 238 239 239 238 239 238
214 212 210 210 209 208 208 208 209 209 211 213 212 213 210 204 203 204 202 202 203 204 203 201 198 196 195 196 197 197 198 199 201 202 204 205 207 209 211 212 213 213 213 214 216 217 218 219 219 220 223 225 228 229 230 231 232 233 235 237 238 240 241 241 242 242 241 241 241 240 237 235 236 234 233 233 233 234 236 235 234 235 238 240 241 241 240 236
214 212 209 211 211 209 209 208 209 209 211 214 213 214 214 210 207 206 205 205 205 205 204 201 199 196 194 195 196 197 197 198 200 202 203 205 207 209 211 213 214 215 216 217 218 218 219 220 220 222 224 226 227 228 230 231 232 234 235 237 239 241 242 243 244 244 244 243 242 242 239 236 236 235 233 233 232 232 235 236 236 236 238 239 240 240 238 234
215 213 210 211 212 211 210 209 209 209 210 213 214 214 215 214 211 207 207 208 208 208 205 200 198 196 195 195 196 197 197 198 200 202 204 205 207 209 211 213 214 215 217 219 220 221 221 221 222 224 225 226 228 229 230 232 233 234 236 238 240 242 243 244 245 244 245 244 243 242 240 236 236 237 235 233 231 230 234 236 237 239 238 237 236 236 237 236
215 215 211 211 212 211 211 210 209 209 210 212 214 214 214 214 213 209 208 209 209 209 206 200 197 196 195 196 197 198 198 200 201 202 204 206 207 209 210 212 214 216 217 219 221 223 224 224 224 226 227 228 230 231 232 233 234 235 237 239 241 242 243 243 244 244 245 245 244 244 242 237 236 238 237 236 233 230 233 235 236 238 238 237 235 235 237 238
215 216 212 211 211 211 211 211 211 210 210 211 213 214 213 214 215 213 211 210 208 209 207 200 197 195 195 197 199 200 200 201 203 204 205 207 208 209 210 211 212 214 217 218 220 221 221 223 225 226 228 229 230 231 232 233 234 236 237 239 240 241 242 243 245 245 246 247 247 246 244 238 236 238 238 239 237 232 233 234 234 236 237 238 237 236 236 237
216 218 214 211 211 211 211 211 212 211 211 211 213 214 214 214 216 216 216 214 211 209 207 202 198 196 196 198 200 203 204 203 205 207 206 208 209 210 211 212 212 213 215 217 218 218 218 219 222 224 225 227 229 230 231 232 233 235 236 237 239 240 242 244 245 246 247 247 247 246 245 239 235 238 239 240 240 236 235 235 234 235 237 238 239 237 236 238
217 219 216 213 212 211 211 211 212 213 212 212 213 214 215 216 216 217 218 219 216 211 207 204 200 198 196 197 200 203 206 206 206 207 208 209 209 210 211 212 213 213 214 215 216 217 218 219 221 223 224 225 227 229 230 231 232 233 235 236 238 240 241 243 244 245 246 246 246 245 245 241 235 236 239 240 242 241 238 237 237 237 237 238 238 239 238 238
217 220 218 215 213 212 211 212 213 214 214 214 214 215 217 217 217 217 218 222 221 213 208 205 202 200 197 197 199 202 205 206 206 207 208 210 210 211 212 212 213 215 216 217 217 217 218 219 221 223 224 226 227 229 230 232 233 234 235 237 238 239 241 242 242 244 244 244 244 243 244 244 236 233 239 241 243 245 243 241 240 239 239 238 238 240 240 240
215 219 219 217 214 213 213 213 213 214 215 216 216 217 218 218 219 218 218 222 221 214 209 206 203 201 199 197 199 203 204 205 207 209 208 210 211 212 213 212 213 215 217 218 219 219 219 220 222 223 224 226 228 229 230 231 232 234 235 236 238 239 239 240 240 241 242 242 242 241 243 245 239 232 237 241 243 246 247 246 245 242 242 241 240 241 242 243
213 218 218 217 215 214 215 214 214 215 216 217 217 218 218 218 219 218 219 222 221 216 211 207 205 203 201 199 199 202 204 206 208 210 210 212 213 213 214 214 214 216 216 217 217 218 219 220 221 222 223 224 225 227 228 230 232 233 235 235 236 237 237 238 239 239 241 241 241 240 241 244 242 233 234 240 243 246 249 250 249 247 245 244 244 243 243 246
211 216 217 217 216 215 216 215 215 216 217 218 218 218 218 218 218 219 220 220 221 218 212 209 207 205 202 200 200 201 204 207 208 210 211 213 214 214 215 216 216 217 217 217 217 217 218 219 220 221 222 222 223 225 227 229 231 233 234 235 236 237 237 238 238 239 240 241 241 240 240 243 243 235 231 237 241 244 247 250 252 252 250 248 247 246 246 247
209 214 216 218 218 216 216 215 215 216 217 218 218 217 218 218 218 220 220 220 221 219 214 211 209 207 204 202 201 201 204 207 208 211 212 213 214 215 216 217 217 218 218 218 218 218 219 219 220 220 221 222 224 226 227 229 230 232 234 235 236 237 237 238 238 239 240 240 240 240 240 241 242 238 233 234 237 240 243 247 251 254 254 253 251 249 248 248
209 214 216 218 218 216 216 215 214 215 217 218 218 218 218 218 218 220 220 220 222 220 215 213 212 209 207 204 203 204 205 208 209 211 213 214 216 216 217 219 220 221 221 220 220 220 221 221 221 222 223 224 225 226 228 230 231 233 235 236 236 238 239 239 239 239 240 241 241 241 241 240 241 241 239 236 236 238 241 244 248 252 255 256 255 253 251 250
208 213 216 217 218 217 216 215 215 214 215 217 218 218 218 218 219 219 219 220 222 220 216 215 215 212 209 207 206 206 207 209 211 213 215 216 217 218 219 220 221 223 223 224 225 225 225 225 224 225 225 227 228 229 231 232 234 236 237 238 239 239 240 241 241 241 241 241 241 242 242 240 239 241 243 242 239 239 242 244 245 248 250 252 254 255 254 253
208 212 215 216 217 219 217 215 215 214 213 216 218 218 218 219 219 219 220 221 221 221 217 216 216 214 212 210 209 209 209 210 211 214 216 218 219 219 219 220 221 221 222 224 225 226 227 228 228 228 229 230 231 232 233 234 235 236 236 237 237 238 240 240 241 242 241 241 241 242 242 241 240 241 245 247 244 242 243 244 245 245 247 248 250 252 254 255
208 212 214 215 217 219 217 215 215 213 212 214 217 219 220 220 220 219 220 222 221 222 220 217 217 217 215 213 212 212 213 213 214 215 217 218 220 220 220 221 222 222 223 224 225 225 226 227 227 229 230 231 233 234 234 235 236 236 236 237 237 238 240 241 242 242 242 242 242 242 242 242 242 243 245 249 249 246 245 246 247 247 248 248 249 250 251 253
208 211 213 214 216 218 217 215 215 214 213 214 217 219 220 220 221 221 221 221 221 223 222 220 219 218 217 216 215 215 215 215 216 218 219 219 220 221 222 223 224 225 226 227 228 228 229 229 228 229 231 232 233 234 235 236 238 239 239 239 240 241 242 243 244 244 244 244 242 241 242 242 243 244 246 249 250 249 247 247 249 250 250 251 252 252 253 253
208 209 212 215 216 216 216 216 216 215 214 216 218 220 220 220 221 221 221 221 221 222 223 222 221 221 220 219 218 217 217 217 218 219 219 220 221 220 220 222 224 225 227 229 231 231 232 233 232 232 233 234 235 236 237 237 238 239 240 240 241 242 242 243 244 244 245 246 244 243 243 242 243 244 246 249 251 252 250 249 250 252 253 254 255 256 257 257
208 208 211 215 216 215 216 217 217 217 216 217 219 220 220 221 222 221 220 221 222 223 224 223 223 223 222 222 221 220 220 220 220 220 220 221 221 220 220 222 223 224 226 229 231 232 232 234 234 233 234 235 236 237 237 237 237 238 239 239 240 241 242 243 245 246 248 249 248 245 243 242 242 243 245 248 251 254 254 253 252 253 255 256 258 259 260 260
211 211 211 214 215 216 216 217 217 218 218 218 219 219 220 222 223 222 221 221 222 223 224 224 224 224 224 224 224 225 224 224 224 223 223 223 222 220 221 223 225 226 228 230 232 233 233 235 236 236 236 237 238 238 237 238 239 240 241 241 241 243 245 246 248 249 251 253 252 249 245 242 241 242 244 247 250 254 257 258 258 257 257 258 259 260 261 262
213 215 216 215 215 216 218 217 217 218 220 220 220 220 221 222 223 223 222 222 222 223 224 225 225 225 225 225 225 226 227 228 227 227 227 226 225 224 223 225 226 228 231 233 234 235 235 237 238 238 239 239 239 240 240 241 242 243 244 245 246 248 250 251 252 252 253 255 254 251 246 243 243 243 244 247 249 254 258 261 262 262 261 261 260 260 261 262
214 217 219 219 218 219 220 219 218 220 221 221 220 221 222 223 224 223 222 222 222 223 224 225 226 226 226 226 226 227 228 230 230 229 228 228 228 227 227 228 229 231 233 235 236 237 238 239 240 241 241 241 242 242 243 244 245 245 246 247 248 249 250 251 251 250 251 253 253 252 248 244 245 246 246 248 250 254 258 261 263 265 265 264 263 262 261 262
215 217 219 220 221 223 223 223 223 223 224 223 222 222 222 223 224 225 224 223 222 223 224 225 226 226 227 227 227 228 229 230 232 231 229 227 228 230 231 232 233 234 237 238 238 239 241 242 243 244 245 245 245 245 245 245 246 246 246 246 247 249 249 251 252 252 252 252 252 253 250 246 247 250 251 252 254 256 259 261 263 265 266 267 266 265 265 264
216 217 218 220 222 223 224 225 225 225 226 226 225 225 224 224 225 227 227 225 224 223 224 225 226 226 226 227 228 228 229 230 232 232 231 229 229 231 233 234 235 237 239 240 241 241 242 244 244 245 246 246 246 246 246 246 247 247 247 247 249 250 251 253 253 252 252 251 252 254 253 250 252 255 257 257 258 259 261 262 264 266 267 269 269 269 269 269
217 218 218 221 222 222 223 225 226 226 227 227 227 227 226 226 226 227 228 228 226 225 225 226 226 226 227 228 228 229 229 230 231 231 232 231 231 232 234 236 237 238 240 241 242 243 245 245 245 245 245 245 245 245 244 244 246 247 248 248 250 251 252 253 253 254 254 254 255 257 256 254 258 260 260 260 260 261 263 265 267 269 269 270 271 271 271 272
216 219 221 223 223 222 224 226 226 227 228 228 229 229 229 228 228 228 229 229 228 227 227 227 227 228 227 228 229 229 229 230 231 231 231 232 232 233 235 237 238 239 240 242 243 244 245 246 246 246 246 246 245 245 245 246 249 250 251 251 252 253 254 255 256 257 257 257 258 259 258 257 259 261 262 262 263 264 266 268 270 270 270 270 270 271 271 272
215 218 220 223 224 224 224 225 226 227 229 230 231 232 231 231 230 230 230 231 230 229 228 228 228 228 228 228 229 230 231 231 232 232 232 232 233 234 235 237 238 239 239 240 241 242 243 244 245 246 247 248 248 248 248 250 251 252 253 254 255 256 257 257 257 256 257 259 258 258 258 258 258 260 261 263 266 268 269 270 269 269 269 270 270 271 272 272
213 215 217 219 222 224 224 224 226 227 227 229 231 232 233 233 232 231 231 231 232 231 230 229 229 229 230 229 230 231 232 232 233 233 233 233 234 234 235 236 237 238 238 239 239 241 242 244 245 247 248 249 249 250 249 249 250 250 250 251 251 252 253 254 255 255 256 257 256 255 257 257 256 258 260 262 265 267 268 269 269 269 269 270 271 272 272 273
213 213 214 215 217 221 224 224 225 226 226 227 229 230 232 233 233 233 232 232 232 232 231 231 230 230 231 230 230 231 232 233 233 234 234 234 234 235 235 236 237 238 238 238 239 240 242 243 245 247 248 249 250 250 250 250 250 250 250 250 249 249 250 251 252 253 253 255 255 255 256 256 256 258 260 262 264 265 266 268 269 270 270 271 271 271 272 273
210 211 212 212 212 215 219 221 222 223 224 226 228 229 230 232 232 232 232 233 233 233 232 232 231 231 231 231 231 230 230 232 233 233 234 235 235 235 236 236 236 238 238 239 239 240 241 243 245 246 247 248 248 249 250 251 251 250 250 250 250 250 251 252 253 254 255 257 257 257 257 257 257 260 262 263 264 265 266 268 269 270 271 272 272 272 272 272
205 207 209 210 210 210 213 215 216 217 219 222 225 228 230 230 230 231 232 232 233 233 233 233 232 232 232 232 232 231 231 231 232 232 232 233 234 235 236 236 236 237 239 239 240 240 242 243 244 245 246 247 247 248 250 250 251 250 250 249 249 250 251 253 256 257 258 259 259 259 259 258 259 261 263 263 263 265 266 266 267 268 269 270 271 272 272 272
206 206 206 208 209 210 211 212 213 214 216 220 224 228 230 231 231 231 232 232 233 234 233 233 234 234 234 234 234 233 232 232 232 231 232 232 233 233 235 236 236 237 239 240 241 242 243 243 244 245 246 246 247 248 249 249 250 249 248 248 249 252 254 256 258 258 258 259 259 259 260 260 260 261 262 262 262 263 264 265 265 266 267 267 269 270 271 271
213 211 209 208 209 210 211 213 214 215 217 221 225 229 232 233 233 233 233 233 234 235 235 235 235 235 236 235 235 236 236 235 234 233 233 233 233 233 234 235 235 236 237 239 241 242 243 243 244 245 246 246 246 247 247 248 247 247 248 250 252 254 256 256 256 255 256 258 258 259 261 262 261 261 261 261 262 262 262 262 263 264 265 266 267 268 270 271
Height
5694 5697 5700 5702 5706 5709 5711 5714 5716 5718 5721 5723 5726 5729 5732 5735 5737 5739 5741 5743 5745 5747 5749 5753 5757 5761 5764 5769 5773 5778 5782 5786 5791 5795 5799 5801 5804 5806 5809 5812 5816 5819 5822 5824 5826 5827 5829 5832 5835 5837 5840 5843 5846 5848 5850 5852 5854 5855 5857 5859 5860 5861 5861 5862 5863 5865 5866 5867 5868 5869 5870 5871 5871 5872 5872 5873 5873 5874 5874 5875 5876 5876 5876 5876 5876 5875 5875 5875
5692 5695 5697 5700 5703 5706 5709 5712 5714 5716 5719 5721 5724 5727 5731 5733 5735 5737 5739 5741 5744 5746 5749 5753 5757 5760 5764 5768 5773 5777 5782 5786 5790 5793 5797 5801 5804 5807 5809 5812 5815 5818 5821 5824 5825 5827 5829 5831 5833 5836 5839 5842 5845 5847 5849 5851 5853 5855 5857 5858 5859 5860 5861 5862 5863 5864 5866 5867 5867 5868 5869 5870 5871 5872 5872 5873 5873 5874 5875 5875 5876 5876 5877 5877 5876 5876 5876 5876
5689 5693 5695 5698 5701 5704 5706 5709 5712 5714 5717 5719 5722 5726 5729 5731 5734 5736 5738 5740 5743 5746 5748 5752 5756 5760 5763 5768 5772 5777 5781 5785 5789 5792 5796 5800 5804 5807 5809 5811 5814 5817 5821 5823 5825 5827 5828 5830 5832 5834 5838 5841 5844 5846 5848 5850 5852 5854 5856 5858 5859 5860 5860 5861 5863 5864 5865 5866 5867 5868 5869 5870 5871 5871 5872 5872 5873 5874 5875 5875 5876 5876 5877 5877 5877 5876 5876 5876
5687 5690 5693 5696 5699 5701 5704 5707 5709 5712 5715 5717 5720 5724 5727 5730 5732 5735 5737 5739 5742 5745 5748 5752 5756 5759 5763 5767 5772 5776 5780 5784 5788 5791 5795 5799 5803 5806 5809 5811 5813 5816 5819 5822 5825 5826 5828 5830 5832 5834 5837 5840 5842 5845 5847 5850 5852 5853 5855 5857 5858 5859 5860 5861 5862 5864 5865 5866 5867 5867 5868 5869 5870 5871 5871 5872 5873 5874 5875 5875 5876 5876 5877 5877 5877 5877 5877 5877
5684 5688 5691 5694 5697 5699 5702 5704 5707 5709 5712 5715 5719 5722 5725 5728 5731 5733 5736 5739 5742 5744 5747 5751 5755 5758 5762 5766 5770 5774 5779 5783 5786 5789 5794 5798 5802 5805 5808 5811 5813 5815 5818 5821 5824 5826 5827 5829 5831 5834 5836 5839 5842 5844 5846 5849 5851 5853 5854 5856 5857 5858 5859 5860 5862 5863 5864 5865 5867 5867 5868 5869 5870 5870 5871 5872 5873 5874 5875 5875 5875 5876 5876 5877 5877 5877 5877 5877
5682 5685 5688 5692 5694 5697 5699 5702 5705 5707 5710 5713 5717 5720 5723 5726 5730 5732 5735 5738 5741 5744 5747 5750 5754 5758 5762 5765 5769 5773 5778 5781 5784 5789 5793 5796 5800 5804 5808 5810 5813 5815 5818 5820 5823 5825 5827 5829 5831 5833 5836 5839 5841 5843 5845 5848 5850 5852 5854 5855 5856 5858 5859 5860 5861 5862 5863 5865 5866 5867 5868 5868 5869 5870 5871 5871 5872 5873 5874 5875 5875 5876 5876 5876 5877 5877 5877 5877
5679 5683 5686 5689 5692 5694 5697 5699 5702 5705 5708 5711 5715 5718 5721 5725 5728 5731 5733 5737 5740 5743 5746 5750 5754 5757 5761 5764 5768 5773 5777 5780 5783 5787 5791 5795 5799 5803 5806 5809 5812 5815 5817 5820 5822 5825 5826 5828 5831 5833 5835 5838 5840 5842 5844 5846 5849 5851 5853 5855 5856 5857 5858 5859 5860 5861 5863 5864 5865 5866 5867 5868 5868 5869 5870 5871 5872 5873 5874 5875 5875 5875 5876 5876 5876 5877 5877 5877
5676 5680 5683 5686 5690 5692 5694 5697 5699 5702 5705 5709 5713 5716 5719 5723 5727 5730 5732 5736 5739 5742 5745 5749 5753 5757 5760 5764 5768 5772 5776 5779 5783 5786 5789 5794 5797 5801 5805 5808 5811 5814 5816 5818 5821 5824 5826 5828 5830 5832 5834 5836 5839 5841 5843 5845 5847 5849 5851 5853 5855 5856 5857 5858 5859 5861 5862 5863 5864 5865 5866 5867 5868 5869 5870 5871 5871 5872 5873 5874 5875 5875 5875 5876 5876 5877 5877 5877
5674 5677 5681 5684 5687 5690 5692 5694 5697 5700 5703 5707 5711 5714 5717 5721 5725 5728 5731 5735 5739 5742 5744 5748 5753 5756 5760 5763 5767 5771 5775 5778 5782 5785 5788 5792 5796 5799 5803 5806 5809 5812 5815 5817 5820 5823 5825 5827 5829 5831 5833 5835 5837 5839 5841 5843 5845 5848 5850 5852 5854 5855 5856 5857 5858 5860 5861 5862 5864 5865 5866 5866 5867 5868 5869 5870 5871 5871 5872 5873 5874 5875 5875 5875 5876 5876 5877 5877
5671 5675 5678 5681 5684 5687 5690 5692 5695 5698 5701 5705 5709 5712 5715 5719 5723 5727 5730 5734 5737 5741 5744 5747 5752 5755 5758 5762 5766 5769 5773 5777 5780 5783 5787 5790 5794 5798 5801 5804 5808 5811 5813 5816 5819 5822 5824 5825 5827 5829 5831 5833 5836 5838 5840 5842 5844 5846 5848 5851 5852 5854 5855 5856 5857 5859 5860 5861 5863 5864 5865 5866 5866 5867 5868 5869 5870 5871 5872 5872 5873 5874 5874 5874 5875 5876 5876 5876
5668 5672 5675 5679 5682 5684 5687 5690 5693 5696 5699 5703 5706 5709 5713 5717 5721 5725 5729 5732 5736 5739 5743 5746 5750 5754 5757 5760 5764 5768 5771 5775 5778 5782 5785 5788 5792 5796 5799 5803 5806 5808 5811 5814 5817 5820 5822 5823 5825 5827 5829 5832 5834 5837 5838 5840 5842 5844 5847 5849 5851 5852 5854 5855 5856 5857 5859 5860 5861 5863 5864 5865 5865 5866 5867 5868 5869 5870 5871 5871 5872 5873 5873 5874 5874 5875 5875 5876
5665 5669 5672 5676 5679 5682 5685 5688 5690 5693 5697 5701 5703 5707 5711 5715 5719 5723 5727 5731 5734 5737 5741 5744 5748 5751 5755 5759 5762 5765 5768 5773 5776 5780 5783 5787 5790 5794 5798 5801 5804 5806 5809 5812 5815 5818 5820 5822 5824 5825 5828 5831 5833 5835 5837 5839 5841 5843 5845 5848 5850 5851 5852 5853 5854 5856 5857 5858 5860 5861 5863 5864 5864 5865 5866 5867 5868 5869 5870 5870 5871 5872 5872 5873 5873 5874 5875 5875
5662 5666 5669 5673 5676 5679 5682 5686 5688 5691 5695 5698 5701 5705 5709 5713 5717 5721 5725 5729 5732 5735 5738 5742 5745 5749 5753 5756 5759 5762 5766 5770 5774 5777 5781 5785 5789 5792 5796 5799 5802 5805 5807 5810 5813 5816 5818 5820 5822 5824 5826 5829 5831 5833 5835 5837 5840 5842 5844 5846 5848 5850 5851 5852 5853 5854 5856 5857 5858 5859 5861 5862 5863 5864 5865 5865 5866 5867 5868 5869 5870 5871 5871 5872 5872 5873 5874 5874
5659 5663 5667 5670 5673 5677 5680 5683 5686 5689 5692 5696 5699 5703 5706 5710 5714 5718 5723 5726 5730 5733 5736 5740 5743 5747 5751 5754 5756 5760 5764 5768 5772 5775 5779 5782 5786 5790 5794 5797 5800 5802 5805 5807 5810 5813 5816 5818 5820 5822 5824 5826 5829 5831 5833 5835 5838 5840 5842 5844 5846 5848 5850 5851 5852 5853 5854 5855 5856 5857 5860 5861 5861 5863 5864 5863 5864 5866 5867 5868 5869 5870 5870 5871 5871 5872 5872 5873
5656 5660 5664 5667 5671 5674 5677 5681 5684 5687 5690 5693 5697 5700 5704 5707 5711 5716 5720 5724 5727 5730 5734 5738 5741 5745 5749 5752 5754 5758 5762 5766 5770 5773 5777 5780 5784 5787 5791 5794 5797 5800 5803 5805 5808 5811 5813 5816 5818 5821 5823 5825 5827 5829 5832 5834 5836 5838 5840 5842 5845 5847 5848 5849 5850 5851 5853 5854 5854 5856 5858 5859 5860 5861 5862 5862 5863 5864 5866 5867 5868 5868 5869 5869 5870 5871 5871 5872
5653 5657 5661 5664 5668 5671 5675 5678 5681 5684 5687 5691 5694 5697 5701 5704 5708 5712 5716 5720 5724 5728 5732 5735 5739 5743 5747 5749 5753 5757 5761 5764 5767 5771 5775 5778 5781 5785 5788 5791 5794 5797 5800 5803 5806 5808 5811 5813 5816 5819 5821 5823 5825 5828 5830 5832 5834 5836 5839 5841 5843 5845 5846 5847 5848 5849 5850 5852 5853 5854 5856 5857 5858 5860 5860 5861 5862 5863 5864 5865 5866 5867 5868 5868 5869 5869 5870 5870
5651 5654 5658 5662 5665 5669 5672 5676 5679 5682 5685 5688 5691 5694 5698 5701 5705 5709 5713 5717 5721 5725 5729 5732 5736 5740 5743 5747 5751 5756 5759 5762 5766 5769 5772 5775 5779 5782 5786 5789 5792 5795 5798 5800 5803 5806 5809 5811 5814 5817 5819 5821 5824 5826 5827 5830 5833 5836 5838 5840 5841 5843 5843 5844 5845 5847 5848 5850 5851 5852 5854 5855 5856 5857 5858 5860 5861 5862 5863 5864 5865 5866 5866 5867 5867 5868 5868 5868
5648 5652 5655 5659 5662 5666 5670 5673 5676 5679 5682 5685 5688 5691 5694 5698 5702 5706 5710 5715 5718 5722 5725 5728 5733 5737 5741 5746 5751 5754 5757 5760 5763 5767 5770 5773 5776 5780 5783 5786 5789 5792 5795 5798 5801 5804 5806 5809 5812 5814 5816 5819 5821 5824 5827 5831 5834 5835 5836 5837 5839 5839 5841 5842 5843 5844 5846 5847 5849 5850 5852 5853 5853 5855 5856 5858 5859 5860 5861 5862 5863 5864 5864 5865 5866 5866 5867 5867
5645 5649 5653 5656 5660 5663 5667 5670 5673 5676 5679 5682 5685 5689 5692 5695 5699 5703 5708 5712 5716 5719 5722 5727 5732 5736 5742 5746 5749 5752 5755 5758 5761 5764 5767 5771 5774 5777 5781 5783 5787 5789 5792 5796 5799 5801 5804 5807 5809 5812 5815 5819 5822 5824 5827 5829 5830 5831 5832 5834 5835 5836 5838 5839 5840 5842 5843 5844 5846 5848 5850 5850 5851 5853 5854 5855 5857 5858 5859 5860 5861 5861 5862 5863 5864 5864 5865 5866
5641 5645 5650 5654 5657 5661 5664 5667 5671 5674 5677 5680 5684 5687 5690 5694 5697 5701 5707 5711 5715 5718 5723 5728 5731 5735 5739 5743 5746 5749 5752 5755 5759 5762 5765 5768 5771 5774 5777 5781 5784 5787 5790 5793 5796 5800 5802 5805 5808 5813 5816 5819 5820 5822 5823 5824 5825 5827 5829 5831 5833 5834 5835 5836 5837 5839 5841 5842 5844 5845 5847 5848 5849 5851 5852 5853 5854 5856 5857 5858 5858 5859 5860 5861 5862 5863 5864 5865
5638 5642 5646 5651 5655 5658 5662 5665 5669 5672 5675 5678 5682 5685 5690 5694 5698 5703 5707 5710 5713 5716 5720 5725 5728 5731 5735 5739 5743 5747 5750 5754 5757 5760 5763 5766 5769 5772 5775 5778 5782 5785 5788 5791 5794 5797 5799 5803 5808 5811 5813 5814 5815 5816 5818 5820 5822 5824 5826 5828 5830 5831 5833 5834 5835 5837 5838 5840 5841 5842 5844 5846 5847 5848 5849 5850 5852 5854 5854 5855 5856 5858 5859 5860 5861 5861 5862 5862
5634 5638 5643 5647 5652 5656 5659 5663 5666 5669 5673 5677 5680 5684 5688 5693 5697 5702 5706 5708 5711 5714 5717 5721 5725 5728 5732 5737 5741 5744 5748 5751 5754 5758 5761 5764 5767 5770 5773 5776 5780 5783 5786 5788 5792 5794 5797 5802 5805 5806 5808 5809 5811 5813 5815 5817 5820 5822 5823 5825 5827 5829 5830 5831 5833 5834 5835 5836 5838 5839 5841 5844 5844 5845 5846 5848 5850 5852 5852 5853 5855 5855 5857 5858 5858 5859 5859 5860
5631 5635 5639 5644 5648 5653 5657 5660 5664 5668 5672 5675 5679 5682 5685 5688 5692 5697 5700 5704 5708 5710 5713 5717 5721 5724 5729 5733 5737 5741 5745 5749 5752 5756 5759 5762 5765 5768 5771 5774 5777 5780 5783 5786 5790 5793 5797 5801 5802 5803 5805 5807 5809 5811 5813 5815 5817 5819 5821 5823 5825 5826 5827 5828 5829 5831 5832 5833 5835 5836 5838 5841 5842 5842 5844 5845 5848 5850 5850 5852 5853 5853 5854 5855 5855 5857 5857 5858
5628 5631 5635 5640 5645 5649 5654 5658 5662 5665 5669 5673 5676 5679 5682 5685 5688 5692 5695 5698 5702 5706 5710 5713 5716 5720 5724 5729 5733 5737 5741 5745 5749 5753 5756 5760 5763 5766 5769 5771 5774 5778 5781 5784 5787 5790 5794 5796 5797 5800 5802 5804 5806 5809 5811 5813 5815 5817 5819 5820 5822 5823 5824 5825 5826 5827 5829 5830 5832 5833 5835 5838 5839 5840 5841 5842 5845 5847 5848 5849 5850 5850 5851 5852 5853 5855 5855 5855
5625 5628 5632 5637 5641 5646 5650 5655 5659 5663 5666 5669 5673 5676 5680 5682 5685 5688 5691 5694 5697 5700 5705 5709 5713 5716 5720 5725 5729 5734 5738 5742 5745 5749 5753 5756 5759 5763 5766 5769 5772 5775 5778 5781 5783 5786 5788 5790 5793 5796 5798 5801 5803 5806 5808 5810 5812 5814 5815 5817 5818 5819 5820 5822 5823 5824 5825 5826 5828 5830 5831 5834 5837 5837 5838 5840 5842 5844 5845 5847 5847 5848 5849 5850 5851 5852 5852 5853
5621 5625 5629 5633 5638 5642 5647 5652 5656 5659 5663 5666 5670 5674 5676 5679 5681 5684 5688 5689 5691 5695 5700 5705 5709 5712 5716 5721 5725 5730 5734 5737 5742 5746 5750 5753 5756 5760 5763 5766 5769 5772 5775 5777 5779 5781 5784 5787 5790 5792 5795 5797 5800 5802 5805 5807 5809 5811 5812 5814 5815 5816 5817 5818 5819 5821 5822 5823 5825 5827 5827 5830 5834 5835 5836 5838 5839 5840 5842 5843 5844 5845 5846 5848 5848 5849 5850 5850
5618 5621 5625 5630 5634 5639 5644 5649 5652 5656 5661 5664 5667 5671 5673 5676 5677 5680 5684 5683 5684 5690 5696 5701 5706 5710 5713 5717 5722 5726 5730 5734 5739 5743 5746 5750 5753 5757 5760 5763 5766 5769 5771 5773 5775 5779 5782 5785 5787 5789 5792 5794 5797 5800 5802 5804 5806 5808 5809 5811 5811 5812 5814 5815 5816 5817 5818 5820 5821 5823 5824 5826 5830 5833 5834 5835 5836 5837 5838 5840 5841 5842 5844 5845 5845 5846 5847 5847
5615 5618 5622 5626 5631 5636 5641 5645 5649 5654 5658 5661 5664 5667 5669 5672 5674 5677 5678 5677 5679 5687 5692 5697 5703 5708 5711 5714 5718 5722 5728 5733 5737 5739 5744 5748 5751 5754 5757 5760 5763 5765 5767 5770 5774 5778 5780 5782 5784 5786 5789 5792 5795 5798 5799 5801 5802 5804 5806 5807 5807 5809 5810 5811 5812 5813 5814 5816 5818 5820 5822 5822 5826 5831 5832 5832 5833 5834 5835 5836 5838 5839 5840 5841 5842 5843 5844 5844
5612 5615 5618 5623 5628 5632 5636 5641 5646 5649 5652 5656 5660 5662 5664 5667 5669 5671 5671 5672 5676 5683 5689 5694 5700 5704 5707 5711 5714 5719 5725 5729 5733 5737 5742 5745 5747 5751 5754 5757 5759 5761 5764 5767 5771 5773 5776 5778 5780 5782 5785 5788 5791 5793 5795 5797 5798 5800 5801 5802 5804 5805 5806 5807 5808 5810 5811 5813 5815 5817 5819 5819 5822 5828 5830 5829 5831 5831 5832 5832 5834 5835 5837 5838 5839 5840 5841 5841
5608 5611 5615 5620 5625 5628 5632 5637 5641 5644 5648 5652 5655 5657 5659 5662 5664 5664 5665 5669 5674 5681 5687 5692 5696 5700 5704 5708 5712 5716 5721 5725 5730 5734 5737 5740 5744 5748 5751 5753 5756 5758 5761 5764 5766 5769 5771 5773 5775 5778 5781 5784 5786 5788 5790 5792 5794 5796 5797 5799 5800 5801 5803 5804 5805 5807 5808 5810 5812 5814 5816 5817 5819 5824 5827 5827 5828 5828 5829 5829 5830 5831 5833 5834 5836 5837 5838 5838
5604 5608 5611 5617 5621 5626 5629 5632 5636 5640 5644 5647 5649 5652 5653 5656 5658 5658 5662 5670 5674 5678 5684 5688 5693 5697 5702 5706 5710 5714 5718 5722 5726 5729 5732 5736 5740 5743 5746 5749 5751 5754 5757 5760 5763 5765 5768 5769 5772 5774 5777 5779 5782 5784 5786 5788 5790 5792 5793 5795 5797 5798 5800 5801 5802 5804 5805 5807 5809 5811 5813 5815 5815 5820 5824 5824 5824 5825 5826 5827 5827 5828 5829 5830 5832 5833 5834 5834
5600 5604 5608 5613 5617 5621 5625 5627 5631 5635 5638 5642 5644 5645 5648 5650 5651 5654 5663 5670 5670 5673 5681 5687 5691 5696 5701 5705 5708 5711 5715 5718 5722 5725 5729 5733 5737 5740 5744 5746 5750 5752 5755 5758 5760 5763 5765 5767 5769 5771 5774 5776 5778 5780 5782 5785 5787 5789 5790 5792 5794 5795 5797 5798 5799 5800 5802 5804 5806 5807 5810 5811 5813 5816 5819 5819 5821 5822 5823 5824 5824 5825 5825 5826 5827 5828 5829 5830
5596 5600 5605 5609 5613 5617 5620 5623 5626 5629 5633 5637 5638 5641 5644 5643 5646 5656 5664 5666 5666 5673 5681 5686 5690 5695 5698 5701 5704 5707 5711 5715 5719 5722 5726 5730 5733 5737 5740 5743 5747 5750 5754 5757 5759 5761 5763 5764 5767 5769 5772 5774 5776 5778 5780 5783 5785 5786 5788 5790 5791 5793 5793 5795 5796 5797 5799 5801 5802 5804 5806 5807 5810 5813 5814 5815 5818 5820 5820 5821 5822 5822 5822 5823 5823 5824 5825 5826
5593 5597 5601 5605 5609 5611 5615 5618 5620 5623 5627 5630 5633 5636 5637 5638 5647 5658 5660 5660 5665 5672 5678 5682 5687 5691 5694 5697 5701 5705 5708 5711 5715 5718 5722 5725 5728 5732 5736 5739 5743 5747 5750 5752 5754 5757 5759 5762 5765 5768 5770 5772 5774 5775 5778 5779 5781 5782 5784 5786 5787 5789 5789 5791 5792 5793 5795 5797 5798 5800 5802 5804 5808 5810 5810 5811 5814 5817 5817 5817 5818 5818 5819 5819 5820 5820 5821 5822
5589 5592 5597 5601 5604 5607 5610 5612 5615 5618 5621 5625 5628 5629 5632 5639 5649 5653 5654 5658 5665 5668 5673 5679 5683 5686 5689 5692 5697 5700 5703 5707 5711 5714 5716 5720 5725 5729 5734 5737 5741 5744 5746 5748 5751 5753 5755 5758 5762 5764 5766 5768 5770 5771 5773 5774 5775 5777 5780 5782 5783 5785 5786 5787 5788 5790 5791 5793 5794 5796 5798 5802 5805 5806 5807 5808 5810 5813 5813 5813 5813 5814 5815 5815 5816 5817 5818 5819
5585 5588 5592 5596 5600 5603 5605 5608 5611 5613 5616 5620 5622 5625 5632 5641 5646 5648 5651 5657 5662 5664 5669 5674 5676 5679 5683 5687 5691 5695 5699 5704 5707 5710 5713 5717 5721 5725 5730 5735 5738 5742 5745 5747 5749 5751 5754 5756 5758 5760 5761 5763 5764 5766 5768 5770 5772 5774 5777 5779 5781 5782 5783 5783 5784 5786 5787 5788 5790 5792 5795 5799 5801 5802 5803 5805 5806 5808 5809 5809 5809 5809 5810 5811 5812 5813 5814 5815
5580 5584 5589 5592 5596 5599 5601 5604 5606 5609 5613 5616 5618 5625 5634 5639 5640 5643 5648 5653 5657 5659 5663 5668 5672 5675 5680 5683 5687 5692 5696 5699 5702 5705 5710 5713 5716 5721 5726 5730 5734 5738 5741 5744 5746 5748 5751 5752 5754 5756 5757 5759 5761 5762 5764 5766 5769 5771 5773 5776 5777 5777 5778 5779 5780 5781 5783 5784 5786 5790 5793 5796 5798 5799 5800 5801 5802 5803 5804 5805 5805 5805 5806 5807 5809 5809 5810 5811
5576 5580 5585 5588 5591 5594 5597 5599 5602 5605 5608 5611 5617 5625 5631 5632 5633 5638 5644 5648 5652 5654 5658 5663 5668 5673 5677 5681 5685 5689 5692 5694 5697 5701 5705 5708 5712 5717 5723 5726 5731 5734 5737 5739 5741 5743 5745 5747 5748 5751 5752 5754 5756 5757 5759 5762 5765 5767 5769 5771 5771 5771 5773 5776 5776 5778 5780 5781 5784 5787 5789 5792 5794 5796 5796 5797 5797 5797 5799 5800 5801 5802 5803 5804 5805 5805 5805 5805
5573 5576 5580 5583 5587 5589 5592 5594 5598 5601 5603 5608 5615 5621 5624 5625 5629 5635 5640 5644 5647 5650 5654 5659 5664 5669 5673 5678 5682 5685 5687 5690 5694 5698 5702 5704 5709 5714 5719 5723 5727 5730 5732 5734 5736 5738 5740 5742 5743 5745 5747 5748 5749 5751 5755 5758 5761 5763 5764 5765 5767 5768 5770 5773 5774 5776 5777 5779 5781 5783 5785 5788 5790 5791 5792 5793 5793 5793 5794 5795 5797 5799 5800 5800 5801 5800 5800 5800
5569 5573 5576 5579 5582 5584 5587 5589 5592 5595 5599 5607 5613 5616 5618 5621 5626 5631 5635 5638 5642 5646 5650 5655 5660 5664 5668 5673 5677 5680 5683 5687 5691 5695 5698 5702 5707 5711 5716 5719 5722 5725 5727 5728 5730 5733 5735 5736 5738 5739 5741 5742 5745 5748 5753 5756 5757 5758 5760 5762 5764 5766 5768 5769 5771 5773 5774 5775 5776 5777 5779 5782 5785 5786 5787 5789 5789 5790 5790 5790 5791 5793 5795 5796 5796 5795 5795 5796
5566 5569 5572 5576 5578 5580 5582 5583 5586 5592 5598 5604 5608 5610 5614 5618 5622 5625 5629 5633 5637 5642 5647 5651 5655 5660 5664 5668 5671 5675 5678 5681 5685 5689 5692 5698 5703 5708 5712 5716 5718 5720 5721 5722 5725 5728 5729 5731 5733 5733 5735 5739 5743 5746 5749 5750 5751 5753 5755 5757 5760 5761 5763 5764 5765 5768 5770 5771 5771 5772 5774 5777 5780 5781 5783 5784 5786 5787 5786 5786 5787 5788 5788 5789 5789 5789 5790 5791
5562 5565 5569 5572 5575 5577 5578 5579 5585 5592 5596 5599 5603 5606 5610 5614 5617 5620 5624 5629 5633 5638 5642 5645 5650 5655 5658 5662 5666 5670 5673 5677 5680 5683 5687 5694 5700 5704 5707 5710 5713 5715 5716 5717 5720 5723 5724 5726 5727 5728 5731 5735 5737 5739 5742 5743 5745 5747 5749 5753 5755 5756 5758 5759 5761 5764 5765 5765 5766 5767 5768 5772 5776 5778 5779 5781 5783 5782 5782 5782 5782 5782 5782 5782 5782 5783 5784 5785
5558 5561 5565 5568 5571 5574 5575 5576 5582 5588 5592 5596 5600 5603 5606 5610 5613 5616 5620 5625 5629 5633 5637 5640 5645 5649 5653 5657 5661 5664 5668 5672 5675 5679 5684 5690 5694 5698 5699 5702 5705 5707 5708 5711 5713 5715 5717 5719 5720 5723 5725 5727 5729 5732 5735 5737 5739 5742 5745 5750 5751 5752 5755 5755 5756 5758 5757 5759 5763 5762 5764 5770 5774 5775 5776 5777 5777 5776 5776 5776 5777 5777 5776 5776 5775 5776 5777 5778
5553 5557 5560 5562 5565 5569 5570 5573 5579 5584 5588 5592 5595 5598 5602 5606 5609 5612 5616 5620 5625 5629 5632 5636 5640 5644 5648 5652 5656 5660 5664 5666 5670 5675 5679 5683 5687 5691 5692 5695 5698 5700 5702 5705 5708 5710 5711 5711 5713 5715 5716 5718 5721 5724 5727 5731 5735 5738 5742 5745 5746 5748 5749 5748 5749 5751 5750 5756 5759 5757 5761 5769 5771 5770 5771 5770 5770 5769 5769 5770 5771 5771 5771 5770 5770 5770 5771 5772
5549 5552 5555 5557 5560 5564 5566 5570 5577 5580 5583 5587 5590 5594 5598 5601 5605 5608 5612 5616 5620 5624 5628 5631 5635 5639 5644 5648 5650 5654 5657 5661 5665 5670 5673 5677 5681 5685 5686 5688 5691 5694 5697 5699 5701 5703 5702 5702 5705 5708 5708 5711 5715 5719 5725 5731 5734 5736 5738 5741 5741 5742 5742 5743 5745 5744 5746 5753 5754 5752 5759 5766 5766 5765 5764 5762 5761 5762 5763 5764 5765 5765 5764 5764 5764 5764 5765 5766
5545 5548 5550 5552 5555 5559 5563 5567 5572 5575 5579 5583 5586 5589 5592 5596 5601 5605 5607 5611 5615 5619 5623 5626 5630 5634 5638 5642 5646 5649 5653 5657 5660 5664 5669 5673 5676 5679 5681 5683 5685 5688 5690 5692 5693 5694 5693 5694 5698 5701 5703 5708 5714 5718 5723 5727 5728 5729 5732 5734 5735 5736 5737 5738 5736 5736 5744 5748 5745 5748 5756 5759 5760 5760 5757 5756 5755 5755 5757 5757 5758 5757 5756 5757 5758 5758 5759 5759
5540 5543 5546 5548 5550 5554 5558 5563 5567 5571 5576 5579 5581 5584 5588 5591 5595 5599 5603 5606 5610 5614 5618 5621 5625 5629 5632 5638 5642 5645 5649 5653 5655 5659 5664 5667 5670 5672 5675 5677 5678 5680 5683 5685 5685 5686 5686 5688 5693 5697 5700 5706 5710 5712 5714 5717 5718 5721 5724 5725 5727 5728 5728 5727 5726 5733 5740 5737 5735 5745 5751 5751 5754 5754 5751 5752 5751 5749 5749 5749 5750 5750 5750 5751 5752 5752 5752 5752
5535 5539 5542 5544 5546 5549 5554 5559 5563 5567 5571 5573 5576 5579 5582 5585 5590 5594 5599 5602 5606 5609 5613 5616 5621 5625 5629 5633 5637 5641 5644 5647 5649 5654 5658 5661 5663 5666 5668 5670 5672 5674 5676 5677 5678 5680 5680 5684 5690 5693 5696 5701 5704 5704 5706 5710 5712 5714 5715 5716 5719 5719 5719 5719 5722 5730 5732 5727 5731 5743 5743 5742 5748 5747 5745 5749 5746 5743 5744 5744 5743 5744 5743 5745 5746 5746 5746 5745
5530 5533 5537 5540 5543 5546 5550 5555 5559 5562 5565 5568 5571 5574 5577 5580 5585 5589 5593 5597 5601 5604 5608 5612 5617 5620 5623 5627 5630 5635 5638 5641 5644 5649 5651 5654 5657 5659 5661 5663 5665 5667 5669 5670 5672 5674 5675 5679 5685 5687 5689 5695 5696 5696 5700 5702 5703 5705 5707 5709 5711 5711 5712 5714 5718 5725 5725 5722 5729 5736 5732 5735 5744 5742 5741 5744 5739 5737 5740 5739 5738 5737 5736 5737 5737 5737 5738 5738
5523 5527 5531 5535 5538 5542 5545 5549 5553 5556 5559 5562 5565 5568 5572 5576 5580 5584 5588 5591 5595 5599 5603 5608 5612 5615 5617 5620 5624 5629 5632 5635 5638 5641 5644 5646 5649 5652 5654 5656 5659 5662 5663 5664 5666 5668 5670 5675 5679 5681 5683 5686 5688 5690 5693 5694 5695 5696 5698 5700 5703 5704 5707 5710 5715 5720 5719 5716 5723 5726 5723 5730 5740 5738 5736 5737 5733 5732 5733 5733 5732 5730 5730 5730 5729 5728 5729 5730
5517 5521 5525 5529 5532 5536 5539 5543 5546 5549 5553 5556 5561 5565 5569 5573 5577 5580 5583 5586 5589 5593 5598 5602 5605 5608 5611 5614 5618 5623 5626 5627 5630 5633 5636 5639 5641 5644 5646 5648 5652 5655 5656 5659 5660 5662 5666 5669 5673 5675 5674 5677 5683 5684 5684 5687 5686 5685 5687 5692 5697 5700 5704 5707 5711 5713 5711 5711 5715 5716 5716 5726 5735 5731 5728 5728 5726 5725 5725 5725 5724 5723 5723 5723 5722 5721 5721 5722
5511 5514 5518 5522 5525 5529 5534 5538 5540 5544 5548 5553 5558 5561 5564 5568 5571 5573 5576 5579 5583 5588 5592 5595 5598 5601 5603 5608 5613 5616 5617 5620 5624 5626 5628 5631 5634 5636 5639 5641 5645 5648 5650 5652 5653 5656 5660 5663 5666 5667 5666 5671 5677 5676 5677 5678 5672 5670 5681 5692 5695 5697 5700 5701 5701 5703 5705 5706 5706 5706 5711 5721 5724 5720 5719 5719 5718 5718 5717 5717 5716 5716 5716 5716 5715 5715 5715 5715